{"data":{"norad_id":59392,"intl_designator":"2024-062U","name":"STARLINK-31626","alt_names":[],"object_type":"PAYLOAD","status":"ACTIVE","operator":null,"country":"US","launch_date":"2024-04-02","launch_site_code":"AFWTR","launch_vehicle":null,"mission":null,"orbit_class":"UNKNOWN","rcs_meters":null,"size_class":null,"mass_kg":null,"dimensions":null,"purposes":["comms"],"wikipedia_slug":null,"has_3d_model":false,"image_url":null,"decayed_at":null,"tle_current":{"epoch":"2026-09-21T18:22:43.799808Z","epoch_age_seconds":55834,"freshness":"FRESH","line1":"1 59392U 24062U   26264.76578472  .00000801  00000+0  34844-4 0  9993","line2":"2 59392  53.1600  61.9226 0001087  88.5297 271.5831 15.34391308139733","mean_motion":15.34391308,"eccentricity":0.0001087,"inclination_deg":53.16,"raan_deg":61.9226,"arg_perigee_deg":88.5297,"mean_anomaly_deg":271.5831,"bstar":3.4844e-5,"rev_number":13973,"period_min":93.848289708899,"perigee_km":461.98547264249,"apogee_km":463.47267692715,"semimajor_km":6840.8660747848,"source":"CELESTRAK","updated_at":"2026-09-22T09:00:48.911619Z"}}}